Weather in Voronye

Russia / Kostroma Oblast     58°00′14″N   42°00′06″E
temp.,
°C
wind,
m/s
gust,
m/s
humid.,
%
clouds,
%
prec.,
mm/h
press.,
hPa
HPBL,
m
14 may, fri
fri1400:00+12ssw249812 1.4 101795
03:00+10ssw23964 1.4 101964
06:00+12ssw269621 0.0 1019214
09:00+16sw36705 0.0 1019728
12:00+20ssw3552100 0.0 10191678
15:00+21sse235361 0.0 10181519
18:00+19sse1173100 0.5 101642
21:00+14s2289100 1.1 101638
15 may, sat
sat1500:00+13ese229889 1.3 101646
03:00+14ese259772 1.8 1015145
06:00+15se3996100 0.1 1014270
09:00+18se3687100 0.6 1013330
12:00+20se41179100 0.3 1012481
15:00+20ssw51077100 2.3 1010810
18:00+16se37956 5.8 1010234
21:00+15sse4119616 6.3 1011427
16 may, sun
sun1600:00+14s3109822 0.1 1011315
03:00+12s399717 0.1 1011206
06:00+14ssw310940 0.0 1012378
09:00+18ssw48740 0.0 1012797
12:00+21ssw585728 0.1 10121796
15:00+21sw595947 0.6 10121740
18:00+18sw49737 1.1 1012962
21:00+13ssw310926 1.1 1013235
17 may, mon
mon1700:00+12sw29973 0.0 1014211
03:00+11sw239796 0.0 101574
06:00+13sw2490100 0.0 1016156
09:00+18sw246998 0.0 1017646
12:00+21ssw3453100 0.0 10171319
15:00+23s234840 0.0 10161403
18:00+22se2264100 0.0 101586
21:00+16se258835 0.2 101576
18 may, tue
tue1800:00+14ese3109394 0.3 1014189
03:00+13se259614 0.3 101392
06:00+15se39898 0.0 1013211
09:00+22sse48585 0.0 1012447
12:00+26se59386 0.0 10121335
15:00+27se59415 0.0 10111443
18:00+24se511546 0.0 1010627
21:00+19se4147310 0.0 1010385